    Observer details:
    204 Schiaparelli Observatory.  Observer A. Aletti.  Measurers A. Aletti, F.
        Bellini.  0.36-m f/7.5 reflector + CCD.
    658 National Research Council of Canada.  Observers D. D. Balam, C. E. Spratt.
        Measurers D. D. Balam, D. W. E. Green.  1.82-m Reflector + CCD.
    673 Table Mountain Observatory, Wrightwood.  Observer J. Pittichova.  1.0-m
        f/15 reflector + CCD.
    695 Kitt Peak.  Observer C. Lejoly.  2.3-m f/9 reflector + CCD.
    950 La Palma.  Observer M. Masek.  0.25-m f/6.8 reflector + CCD.
    A77 Observatoire Chante-Perdrix, Dauban.  Observer F. Kugel.  0.40-m f/2.8
        reflector + CCD.
    B72 Soerth.  Observer B. Koch.  0.36-m f/7.6 Schmidt-Cassegrain + CMO.
    F51 Pan-STARRS 1, Haleakala.  Observers J. Bulger, K. Chambers, T. Lowe, A.
        Schultz, I. Smith.  Measurers S. Chastel, J. Fairlamb, M. Huber, Y.
        Ramanjooloo, R. Wainscoat, R. Weryk.  1.8-m Ritchey-Chretien + CCD.
    F52 Pan-STARRS 2, Haleakala.  Observers J. Bulger, K. Chambers, T. Dukes, T.
        Lowe, A. Schultz, I. Smith.  Measurers S. Chastel, J. Fairlamb, M. Huber,
        Y. Ramanjooloo, R. Wainscoat, R. Weryk.  1.8-m Ritchey-Chretien + CCD.
    G00 AZM Martinsberg, Oed.  Observers M. Jaeger, E. Prosperi, S. Prosperi.
        Measurer M. Jaeger.  0.3-m f/4.0 reflector + CCD, 0.35-m f/4.2 reflector +
        CCD.
    G96 Mt. Lemmon Survey.  Observer D. Rankin.  Measurers E. J. Christensen, D.
        Fay, J. B. Fazekas, D. C. Fuls, A. R. Gibbs, A. D. Grauer, H. Groeller, J.
        K. Hogan, R. A. Kowalski, S. M. Larson, G. J. Leonard, D. Rankin, R. L.
        Seaman, A. Serrano, F. C. Shelly, K. W. Wierzchos.  1.5-m reflector + 10K
        CCD.
    H21 Astronomical Research Observatory, Westfield.  Observer R. Holmes.
        Measurers T. Linder, R. Holmes, L. Horn.  0.76-m f/3.0 astrograph + CCD.
    H36 Sandlot Observatory, Scranton.  Observer G. Hug.  .56 meter Reflector +
        CCD.
    I52 Steward Observatory, Mt. Lemmon Station.  Observer A. Serrano.  Measurers
        E. J. Christensen, D. Fay, J. B. Fazekas, D. C. Fuls, A. R. Gibbs, A. D.
        Grauer, H. Groeller, J. K. Hogan, R. A. Kowalski, S. M. Larson, G. J.
        Leonard, D. Rankin, R. L. Seaman, A. Serrano, F. C. Shelly, K. W.
        Wierzchos.  1.0-m prime focus + CCD.
    L01 Visnjan Observatory, Tican.  Observer K. Korlevic.  1.0-m f/2.9 reflector
        + CCD.
    L06 Sormano 2 Observatory, Bellagio Via Lattea.  Observers E. Valli, G.
        Ventre.  Measurer P. Sicoli.  0.36m Schmidt Cassegrain + CCD.
    U94 iTelescope Observatory, Beryl Junction (Sato).  Observer H. Sato.  0.51-m
        f/6.8 astrograph + CCD + f/4.5 focal reducer.
    W62 Comet Hunter Observatory2, New Ringgold.  Observer J. Maikner.  0.30-m
        f/3.8 Riccardi-Honders + CCD.
    
    Orbital elements:
        C/2023 H2 (Lemmon)                                                          
    Epoch 2023 Feb. 25.0 TT = JDT 2460000.5                                         
    T 2023 Oct. 29.17838 TT                                 Rudenko                 
    q   0.8944135            (2000.0)            P               Q                  
    z  +0.0040248      Peri.  150.64405     +0.57676636     +0.60276900             
     +/-0.0000113      Node   217.04125     +0.44782104     +0.33119919             
    e   0.9964002      Incl.  113.75075     +0.68322536     -0.72593156             
    From 71 observations 2023 Mar. 26-May 22, mean residual 0".4.                   
                                                                                    
    Ephemeris:
    Date    TT    R. A. (2000) Decl.     Delta      r    Elong.  Phase   m1    m2
    2023 04 24    14 07 57.5 +38 21 09   2.2296  2.9676   129.0    15.3  20.5
    ...
    2023 05 09    13 32 16.5 +43 06 46   2.1909  2.7897   116.4    18.9  20.2
    ...
    2023 05 17    13 12 11.4 +44 50 07   2.1970  2.6936   108.5    20.9  20.0
    ...
    2023 05 23    12 57 29.8 +45 44 22   2.2105  2.6209   102.4    22.2  19.9
    2023 05 24    12 55 06.9 +45 51 34   2.2133  2.6088   101.3    22.4  19.9
    2023 05 25    12 52 45.4 +45 58 16   2.2163  2.5966   100.3    22.6  19.9
    ...
    2023 05 31    12 39 11.8 +46 28 35   2.2365  2.5233    94.3    23.6  19.8
    ...
    2023 06 08    12 23 00.6 +46 46 00   2.2674  2.4247    86.4    24.7  19.6
    ...
    2023 06 23    11 59 30.7 +46 28 36   2.3236  2.2377    72.4    25.7  19.3
    
    M. P. C. Staff               (C) Copyright 2023 MPC           M.P.E.C. 2023-K122
    


    Read MPEC 2023-K121 Read MPEC 2023-K123


    MPEC number:

    Enter an MPEC number in one of the following forms:

    • 1997-B01 (the full form)
    • J97B01 (the packed version of the full form)
    • B01 (the abbreviated form)